TimeMST,TemperatureF,Dew PointF,Humidity,Sea Level PressureIn,VisibilityMPH,Wind Direction,Wind SpeedMPH,Gust SpeedMPH,PrecipitationIn,Events,Conditions,WindDirDegrees,DateUTC
12:53 AM,39.0,39.0,100,29.95,5.0,Calm,Calm,-,0.00,,Overcast,0,2013-03-03 07:53:00
1:53 AM,39.0,37.9,96,29.91,6.0,Calm,Calm,-,N/A,,Overcast,0,2013-03-03 08:53:00
2:53 AM,39.0,37.9,96,29.88,8.0,South,4.6,-,0.00,Rain,Light Rain,180,2013-03-03 09:53:00
3:53 AM,39.9,37.9,93,29.86,10.0,ESE,4.6,-,0.00,,Overcast,120,2013-03-03 10:53:00
4:02 AM,39.2,37.4,93,29.83,10.0,ESE,4.6,-,N/A,,Overcast,120,2013-03-03 11:02:00
4:53 AM,37.4,37.4,100,29.82,2.0,West,5.8,-,N/A,,Overcast,260,2013-03-03 11:53:00
4:55 AM,37.4,37.4,100,29.82,1.2,WSW,4.6,-,N/A,,Overcast,250,2013-03-03 11:55:00
4:57 AM,37.4,37.4,100,29.82,0.8,WSW,5.8,-,N/A,,Overcast,250,2013-03-03 11:57:00
5:12 AM,37.4,37.4,100,29.82,1.0,SW,3.5,-,0.00,Rain,Light Rain,230,2013-03-03 12:12:00
5:19 AM,37.4,37.4,100,29.81,0.8,Calm,Calm,-,0.00,Rain,Light Rain,0,2013-03-03 12:19:00
5:23 AM,37.4,37.4,100,29.81,0.5,NE,4.6,-,0.00,Fog-Rain,Light Rain,40,2013-03-03 12:23:00
5:31 AM,37.4,37.4,100,29.80,1.2,Calm,Calm,-,0.00,,Overcast,0,2013-03-03 12:31:00
5:33 AM,37.4,37.4,100,29.81,1.8,Calm,Calm,-,N/A,,Overcast,0,2013-03-03 12:33:00
5:35 AM,37.4,37.4,100,29.80,3.0,ENE,3.5,-,0.00,,Overcast,60,2013-03-03 12:35:00
5:53 AM,37.0,37.0,100,29.84,9.0,Calm,Calm,-,0.00,,Mostly Cloudy,0,2013-03-03 12:53:00
6:53 AM,36.0,33.1,89,29.86,10.0,NW,13.8,28.8,0.00,Rain,Light Rain,320,2013-03-03 13:53:00
7:53 AM,36.0,25.0,64,29.90,8.0,West,20.7,33.4,0.00,Snow,Light Snow,270,2013-03-03 14:53:00
8:53 AM,35.1,25.0,67,29.95,10.0,NW,12.7,-,0.00,,Overcast,310,2013-03-03 15:53:00
9:53 AM,37.0,18.0,46,29.95,10.0,West,20.7,28.8,N/A,,Partly Cloudy,270,2013-03-03 16:53:00
10:16 AM,33.8,26.6,75,29.91,10.0,West,15.0,-,N/A,,Mostly Cloudy,280,2013-03-03 17:16:00
10:53 AM,35.1,23.0,61,29.93,10.0,WSW,18.4,-,N/A,,Partly Cloudy,240,2013-03-03 17:53:00
11:53 AM,39.0,18.0,43,29.93,10.0,West,18.4,36.8,N/A,,Mostly Cloudy,270,2013-03-03 18:53:00
12:53 PM,37.9,17.1,43,29.94,10.0,WSW,24.2,36.8,N/A,,Mostly Cloudy,250,2013-03-03 19:53:00
1:53 PM,37.9,16.0,41,29.95,10.0,West,19.6,26.5,N/A,,Overcast,280,2013-03-03 20:53:00
2:53 PM,37.9,16.0,41,29.98,10.0,West,13.8,-,N/A,,Overcast,260,2013-03-03 21:53:00
3:53 PM,37.0,18.0,46,30.00,10.0,West,20.7,-,0.00,Snow,Light Snow,280,2013-03-03 22:53:00
4:53 PM,37.0,18.0,46,30.01,10.0,West,15.0,-,0.00,,Overcast,280,2013-03-03 23:53:00
5:53 PM,36.0,17.1,46,30.03,10.0,West,21.9,25.3,N/A,,Overcast,270,2013-03-04 00:53:00
6:53 PM,35.1,17.1,48,30.06,10.0,West,15.0,27.6,N/A,,Overcast,280,2013-03-04 01:53:00
7:53 PM,34.0,19.9,56,30.10,10.0,West,6.9,-,N/A,,Overcast,280,2013-03-04 02:53:00
8:53 PM,33.1,23.0,66,30.12,10.0,North,8.1,-,N/A,,Overcast,360,2013-03-04 03:53:00
9:53 PM,30.9,26.1,82,30.14,3.0,North,13.8,19.6,0.00,Snow,Light Snow,350,2013-03-04 04:53:00
9:59 PM,30.2,26.6,86,30.06,1.8,North,16.1,-,0.00,Snow,Light Snow,350,2013-03-04 04:59:00
10:03 PM,30.2,26.6,86,30.07,1.2,North,15.0,-,0.00,Snow,Light Snow,350,2013-03-04 05:03:00
10:12 PM,30.2,28.4,93,30.07,1.0,NNW,11.5,-,0.00,Snow,Light Snow,340,2013-03-04 05:12:00
10:28 PM,28.4,28.4,100,30.08,0.8,NNW,9.2,-,0.01,Snow,Light Snow,330,2013-03-04 05:28:00
10:39 PM,28.4,28.4,100,30.08,0.5,NNW,6.9,-,0.02,Fog-Snow,Snow,330,2013-03-04 05:39:00
10:53 PM,28.9,28.0,96,30.17,0.8,WNW,6.9,-,0.04,Snow,Light Snow,300,2013-03-04 05:53:00
11:00 PM,28.4,26.6,93,30.09,1.0,WNW,10.4,-,0.00,Snow,Light Snow,290,2013-03-04 06:00:00
11:04 PM,28.4,26.6,93,30.09,1.5,WNW,10.4,-,0.00,Snow,Light Snow,290,2013-03-04 06:04:00
11:11 PM,28.4,26.6,93,30.09,2.0,WNW,10.4,-,0.00,Snow,Light Snow,290,2013-03-04 06:11:00
11:20 PM,28.4,26.6,93,30.09,6.0,West,11.5,-,0.00,Snow,Light Snow,280,2013-03-04 06:20:00
11:26 PM,28.4,26.6,93,30.10,7.0,West,11.5,-,0.00,Snow,Light Snow,280,2013-03-04 06:26:00
11:53 PM,28.0,26.1,92,30.18,10.0,West,11.5,-,0.00,,Overcast,280,2013-03-04 06:53:00